Time,TemperatureF,DewpointF,PressureIn,WindDirection,WindDirectionDegrees,WindSpeedMPH,WindSpeedGustMPH,Humidity,HourlyPrecipIn,Conditions,Clouds,dailyrainin,SoftwareType,DateUTC
2013-06-06 00:03:00,80.6,69.5,29.61,North,0,0.0,0.0,69,0.00,BKN,,0.00,WeatherDisplay:10.37,2013-06-06 05:03:00,
2013-06-06 00:08:00,80.4,69.3,29.61,North,0,0.0,0.0,69,0.00,BKN,,0.00,WeatherDisplay:10.37,2013-06-06 05:08:00,
2013-06-06 00:13:00,80.4,69.7,29.61,North,0,0.0,0.0,70,0.00,BKN,,0.00,WeatherDisplay:10.37,2013-06-06 05:13:00,
2013-06-06 00:18:00,80.4,69.7,29.61,North,0,0.0,0.0,70,0.00,BKN,,0.00,WeatherDisplay:10.37,2013-06-06 05:18:00,
2013-06-06 00:23:00,80.4,69.7,29.61,North,0,0.0,0.0,70,0.00,BKN,,0.00,WeatherDisplay:10.37,2013-06-06 05:23:00,
2013-06-06 00:28:00,80.4,69.7,29.61,North,0,0.0,0.0,70,0.00,BKN,,0.00,WeatherDisplay:10.37,2013-06-06 05:28:00,
2013-06-06 00:33:00,80.2,69.6,29.61,North,0,0.0,0.0,70,0.00,BKN,,0.00,WeatherDisplay:10.37,2013-06-06 05:33:00,
2013-06-06 00:38:00,80.2,69.6,29.61,North,0,0.0,0.0,70,0.00,BKN,,0.00,WeatherDisplay:10.37,2013-06-06 05:38:00,
2013-06-06 00:43:00,80.2,69.6,29.61,North,0,0.0,0.0,70,0.00,BKN,,0.00,WeatherDisplay:10.37,2013-06-06 05:43:00,
2013-06-06 00:48:00,80.2,69.6,29.61,North,0,0.0,0.0,70,0.00,BKN,,0.00,WeatherDisplay:10.37,2013-06-06 05:48:00,
2013-06-06 00:53:00,80.2,69.6,29.61,North,0,0.0,0.0,70,0.00,BKN,,0.00,WeatherDisplay:10.37,2013-06-06 05:53:00,
2013-06-06 00:58:00,80.1,69.8,29.61,North,0,0.0,0.0,71,0.00,BKN,,0.00,WeatherDisplay:10.37,2013-06-06 05:58:00,
2013-06-06 01:03:00,80.1,69.8,29.61,North,0,0.0,0.0,71,0.00,BKN,,0.00,WeatherDisplay:10.37,2013-06-06 06:03:00,
2013-06-06 01:08:00,79.7,69.5,29.61,North,0,0.0,0.0,71,0.00,BKN,,0.00,WeatherDisplay:10.37,2013-06-06 06:08:00,
2013-06-06 01:13:00,79.3,69.1,29.60,North,0,0.0,0.0,71,0.00,BKN,,0.00,WeatherDisplay:10.37,2013-06-06 06:13:00,
2013-06-06 01:18:00,79.2,69.4,29.60,North,0,0.0,0.0,72,0.00,BKN,,0.00,WeatherDisplay:10.37,2013-06-06 06:18:00,
2013-06-06 01:23:00,79.0,69.2,29.61,North,0,0.0,0.0,72,0.00,BKN,,0.00,WeatherDisplay:10.37,2013-06-06 06:23:00,
2013-06-06 01:28:00,78.8,69.0,29.61,North,0,0.0,0.0,72,0.00,BKN,,0.00,WeatherDisplay:10.37,2013-06-06 06:28:00,
2013-06-06 01:33:00,79.0,69.2,29.60,North,0,0.0,0.0,72,0.00,BKN,,0.00,WeatherDisplay:10.37,2013-06-06 06:33:00,
2013-06-06 01:38:00,79.0,69.2,29.61,North,0,0.0,0.0,72,0.00,BKN,,0.00,WeatherDisplay:10.37,2013-06-06 06:38:00,
2013-06-06 01:43:00,78.8,69.0,29.60,North,0,0.0,0.0,72,0.00,BKN,,0.00,WeatherDisplay:10.37,2013-06-06 06:43:00,
2013-06-06 01:48:00,78.6,69.2,29.59,North,0,0.0,0.0,73,0.00,BKN,,0.00,WeatherDisplay:10.37,2013-06-06 06:48:00,
2013-06-06 01:53:00,78.3,69.3,29.59,North,0,0.0,0.0,74,0.00,BKN,,0.00,WeatherDisplay:10.37,2013-06-06 06:53:00,
2013-06-06 01:58:00,78.1,69.5,29.60,North,0,0.0,0.0,75,0.00,BKN,,0.00,WeatherDisplay:10.37,2013-06-06 06:58:00,
2013-06-06 02:03:00,77.9,69.3,29.60,North,0,0.0,0.0,75,0.00,SCT,,0.00,WeatherDisplay:10.37,2013-06-06 07:03:00,
2013-06-06 02:08:00,77.5,69.4,29.59,North,0,0.0,0.0,76,0.00,SCT,,0.00,WeatherDisplay:10.37,2013-06-06 07:08:00,
2013-06-06 02:13:00,77.4,69.6,29.59,North,0,0.0,0.0,77,0.00,SCT,,0.00,WeatherDisplay:10.37,2013-06-06 07:13:00,
2013-06-06 02:18:00,77.4,69.6,29.59,North,0,0.0,0.0,77,0.00,SCT,,0.00,WeatherDisplay:10.37,2013-06-06 07:18:00,
2013-06-06 02:23:00,77.2,69.8,29.59,North,0,0.0,0.0,78,0.00,SCT,,0.00,WeatherDisplay:10.37,2013-06-06 07:23:00,
2013-06-06 02:28:00,77.0,69.6,29.59,North,0,0.0,0.0,78,0.00,SCT,,0.00,WeatherDisplay:10.37,2013-06-06 07:28:00,
2013-06-06 02:33:00,76.8,69.4,29.59,North,0,0.0,0.0,78,0.00,SCT,,0.00,WeatherDisplay:10.37,2013-06-06 07:33:00,
2013-06-06 02:38:00,76.8,69.4,29.59,North,0,0.0,0.0,78,0.00,SCT,,0.00,WeatherDisplay:10.37,2013-06-06 07:38:00,
2013-06-06 02:43:00,76.8,69.4,29.59,North,0,0.0,0.0,78,0.00,SCT,,0.00,WeatherDisplay:10.37,2013-06-06 07:43:00,
2013-06-06 02:48:00,76.6,69.3,29.58,North,0,0.0,0.0,78,0.00,SCT,,0.00,WeatherDisplay:10.37,2013-06-06 07:48:00,
2013-06-06 02:53:00,76.6,69.3,29.58,North,0,0.0,0.0,78,0.00,SCT,,0.00,WeatherDisplay:10.37,2013-06-06 07:53:00,
2013-06-06 02:58:00,76.6,69.3,29.58,North,0,0.0,0.0,78,0.00,SCT,,0.00,WeatherDisplay:10.37,2013-06-06 07:58:00,
2013-06-06 03:03:00,76.6,69.3,29.58,North,0,0.0,0.0,78,0.00,CLR,,0.00,WeatherDisplay:10.37,2013-06-06 08:03:00,
2013-06-06 03:08:00,76.6,69.3,29.58,North,0,0.0,0.0,78,0.00,CLR,,0.00,WeatherDisplay:10.37,2013-06-06 08:08:00,
2013-06-06 03:13:00,76.6,69.6,29.58,North,0,0.0,0.0,79,0.00,CLR,,0.00,WeatherDisplay:10.37,2013-06-06 08:13:00,
2013-06-06 03:18:00,76.6,69.6,29.58,North,0,0.0,0.0,79,0.00,CLR,,0.00,WeatherDisplay:10.37,2013-06-06 08:18:00,
2013-06-06 03:23:00,76.6,69.6,29.59,North,0,0.0,0.0,79,0.00,CLR,,0.00,WeatherDisplay:10.37,2013-06-06 08:23:00,
2013-06-06 03:28:00,76.8,69.8,29.59,North,0,0.0,0.0,79,0.00,CLR,,0.00,WeatherDisplay:10.37,2013-06-06 08:28:00,
2013-06-06 03:33:00,76.8,69.8,29.59,North,0,0.0,0.0,79,0.00,CLR,,0.00,WeatherDisplay:10.37,2013-06-06 08:33:00,
2013-06-06 03:38:00,76.8,69.8,29.59,North,0,0.0,0.0,79,0.00,CLR,,0.00,WeatherDisplay:10.37,2013-06-06 08:38:00,
2013-06-06 03:43:00,76.8,69.8,29.59,North,0,0.0,0.0,79,0.00,CLR,,0.00,WeatherDisplay:10.37,2013-06-06 08:43:00,
2013-06-06 03:48:00,77.0,69.6,29.59,North,0,0.0,0.0,78,0.00,CLR,,0.00,WeatherDisplay:10.37,2013-06-06 08:48:00,
2013-06-06 03:53:00,77.0,69.6,29.59,North,0,0.0,0.0,78,0.00,CLR,,0.00,WeatherDisplay:10.37,2013-06-06 08:53:00,
2013-06-06 03:58:00,77.0,69.6,29.59,North,0,0.0,0.0,78,0.00,CLR,,0.00,WeatherDisplay:10.37,2013-06-06 08:58:00,
2013-06-06 04:03:00,77.0,70.0,29.59,North,0,0.0,0.0,79,0.00,BKN,,0.00,WeatherDisplay:10.37,2013-06-06 09:03:00,
2013-06-06 04:08:00,77.0,70.0,29.58,North,0,0.0,0.0,79,0.00,BKN,,0.00,WeatherDisplay:10.37,2013-06-06 09:08:00,
2013-06-06 04:14:00,77.0,70.0,29.58,North,0,0.0,0.0,79,0.00,BKN,,0.00,WeatherDisplay:10.37,2013-06-06 09:14:00,
2013-06-06 04:19:00,77.0,70.0,29.58,North,0,0.0,0.0,79,0.00,BKN,,0.00,WeatherDisplay:10.37,2013-06-06 09:19:00,
2013-06-06 04:24:00,77.0,70.0,29.58,North,0,0.0,0.0,79,0.00,BKN,,0.00,WeatherDisplay:10.37,2013-06-06 09:24:00,
2013-06-06 04:29:00,77.0,70.0,29.57,North,0,0.0,0.0,79,0.00,BKN,,0.00,WeatherDisplay:10.37,2013-06-06 09:29:00,
2013-06-06 04:34:00,77.0,70.0,29.57,North,0,0.0,0.0,79,0.00,BKN,,0.00,WeatherDisplay:10.37,2013-06-06 09:34:00,
2013-06-06 04:39:00,76.8,69.8,29.57,North,0,0.0,0.0,79,0.00,BKN,,0.00,WeatherDisplay:10.37,2013-06-06 09:39:00,
2013-06-06 04:44:00,76.6,70.0,29.56,North,0,0.0,0.0,80,0.00,BKN,,0.00,WeatherDisplay:10.37,2013-06-06 09:44:00,
2013-06-06 04:49:00,76.6,70.0,29.56,North,0,0.0,0.0,80,0.00,BKN,,0.00,WeatherDisplay:10.37,2013-06-06 09:49:00,
2013-06-06 04:54:00,76.5,69.8,29.57,North,0,0.0,0.0,80,0.00,BKN,,0.00,WeatherDisplay:10.37,2013-06-06 09:54:00,
2013-06-06 04:59:00,76.3,70.4,29.58,North,0,0.0,0.0,82,0.00,BKN,,0.00,WeatherDisplay:10.37,2013-06-06 09:59:00,
2013-06-06 05:04:00,76.1,70.2,29.57,North,0,0.0,0.0,82,0.00,BKN,,0.00,WeatherDisplay:10.37,2013-06-06 10:04:00,
2013-06-06 05:09:00,76.1,70.2,29.56,North,0,0.0,0.0,82,0.00,BKN,,0.00,WeatherDisplay:10.37,2013-06-06 10:09:00,
2013-06-06 05:14:00,75.9,70.0,29.56,North,0,0.0,0.0,82,0.00,BKN,,0.00,WeatherDisplay:10.37,2013-06-06 10:14:00,
2013-06-06 05:19:00,75.9,70.0,29.55,North,0,0.0,0.0,82,0.00,BKN,,0.00,WeatherDisplay:10.37,2013-06-06 10:19:00,
2013-06-06 05:24:00,75.9,70.0,29.55,North,0,0.0,0.0,82,0.00,BKN,,0.00,WeatherDisplay:10.37,2013-06-06 10:24:00,
2013-06-06 05:29:00,75.9,70.0,29.55,North,0,0.0,0.0,82,0.00,BKN,,0.00,WeatherDisplay:10.37,2013-06-06 10:29:00,
2013-06-06 05:37:00,75.9,70.7,29.55,North,0,0.0,0.0,84,0.00,BKN,,0.00,WeatherDisplay:10.37,2013-06-06 10:37:00,
2013-06-06 06:24:00,74.1,70.3,29.61,North,0,0.0,0.0,88,0.03,RA,,0.04,WeatherDisplay:10.37,2013-06-06 11:24:00,
2013-06-06 06:29:00,73.6,68.8,29.65,North,0,0.0,0.0,85,0.06,RA,,0.06,WeatherDisplay:10.37,2013-06-06 11:29:00,
2013-06-06 06:34:00,72.9,67.7,29.67,North,0,0.0,0.0,84,0.12,RA,,0.16,WeatherDisplay:10.37,2013-06-06 11:34:00,
2013-06-06 06:39:00,72.3,67.9,29.67,North,0,0.0,0.0,86,0.37,RA,,0.44,WeatherDisplay:10.37,2013-06-06 11:39:00,
2013-06-06 06:44:00,72.0,67.5,29.64,North,0,0.0,0.0,86,0.61,RA,,0.61,WeatherDisplay:10.37,2013-06-06 11:44:00,
2013-06-06 06:49:00,71.6,67.2,29.62,North,0,0.0,0.0,86,0.66,RA,,0.67,WeatherDisplay:10.37,2013-06-06 11:49:00,
2013-06-06 06:54:00,71.6,67.5,29.62,North,0,0.0,0.0,87,0.73,RA,,0.74,WeatherDisplay:10.37,2013-06-06 11:54:00,
2013-06-06 07:00:00,71.6,67.5,29.62,North,0,0.0,0.0,87,0.79,RA,,0.80,WeatherDisplay:10.37,2013-06-06 12:00:00,
2013-06-06 07:05:00,71.8,67.7,29.62,North,0,0.0,0.0,87,0.83,RA,,0.83,WeatherDisplay:10.37,2013-06-06 12:05:00,
2013-06-06 07:10:00,71.4,67.0,29.62,North,0,0.0,0.0,86,0.83,RA,,0.84,WeatherDisplay:10.37,2013-06-06 12:10:00,
2013-06-06 07:15:00,70.9,66.5,29.65,North,0,0.0,0.0,86,0.84,RA,,0.85,WeatherDisplay:10.37,2013-06-06 12:15:00,
2013-06-06 07:20:00,70.7,66.3,29.66,North,0,0.0,0.0,86,0.84,RA,,0.86,WeatherDisplay:10.37,2013-06-06 12:20:00,
2013-06-06 07:25:00,70.5,66.1,29.66,North,0,0.0,0.0,86,0.82,RA,,0.86,WeatherDisplay:10.37,2013-06-06 12:25:00,
2013-06-06 07:30:00,70.5,66.1,29.67,North,0,0.0,0.0,86,0.81,RA,,0.87,WeatherDisplay:10.37,2013-06-06 12:30:00,
2013-06-06 07:35:00,70.5,66.1,29.68,North,0,0.0,0.0,86,0.71,RA,,0.88,WeatherDisplay:10.37,2013-06-06 12:35:00,
2013-06-06 07:40:00,70.5,66.1,29.69,North,0,0.0,0.0,86,0.48,RA,,0.91,WeatherDisplay:10.37,2013-06-06 12:40:00,
2013-06-06 07:45:00,70.5,66.1,29.69,North,0,0.0,0.0,86,0.33,RA,,0.94,WeatherDisplay:10.37,2013-06-06 12:45:00,
2013-06-06 07:50:00,70.5,66.1,29.69,North,0,0.0,0.0,86,0.28,RA,,0.95,WeatherDisplay:10.37,2013-06-06 12:50:00,
2013-06-06 07:55:00,70.5,66.1,29.69,North,0,0.0,0.0,86,0.22,RA,,0.96,WeatherDisplay:10.37,2013-06-06 12:55:00,
2013-06-06 08:00:00,70.5,65.8,29.69,North,0,0.0,0.0,85,0.19,RA,,0.98,WeatherDisplay:10.37,2013-06-06 13:00:00,
2013-06-06 08:05:00,70.3,65.6,29.68,North,0,0.0,0.0,85,0.16,RA,,0.99,WeatherDisplay:10.37,2013-06-06 13:05:00,
2013-06-06 08:10:00,70.0,65.6,29.67,North,0,0.0,0.0,86,0.16,RA,,1.00,WeatherDisplay:10.37,2013-06-06 13:10:00,
2013-06-06 08:15:00,69.8,65.4,29.67,North,0,0.0,0.0,86,0.17,RA,,1.02,WeatherDisplay:10.37,2013-06-06 13:15:00,
2013-06-06 08:20:00,69.6,65.2,29.66,North,0,0.0,0.0,86,0.15,RA,,1.02,WeatherDisplay:10.37,2013-06-06 13:20:00,
2013-06-06 08:25:00,69.4,65.1,29.65,North,0,0.0,0.0,86,0.16,RA,,1.02,WeatherDisplay:10.37,2013-06-06 13:25:00,
2013-06-06 08:30:00,69.3,65.2,29.64,North,0,0.0,0.0,87,0.15,RA,,1.02,WeatherDisplay:10.37,2013-06-06 13:30:00,
2013-06-06 08:35:00,69.3,65.2,29.63,North,0,0.0,0.0,87,0.14,OVC,,1.02,WeatherDisplay:10.37,2013-06-06 13:35:00,
2013-06-06 08:40:00,69.1,65.0,29.63,North,0,0.0,0.0,87,0.11,OVC,,1.02,WeatherDisplay:10.37,2013-06-06 13:40:00,
2013-06-06 08:45:00,69.1,65.0,29.62,North,0,0.0,0.0,87,0.09,OVC,,1.02,WeatherDisplay:10.37,2013-06-06 13:45:00,
2013-06-06 08:50:00,69.1,65.0,29.62,North,0,0.0,0.0,87,0.07,OVC,,1.02,WeatherDisplay:10.37,2013-06-06 13:50:00,
2013-06-06 08:55:00,69.3,65.6,29.61,North,0,0.0,0.0,88,0.06,OVC,,1.02,WeatherDisplay:10.37,2013-06-06 13:55:00,
2013-06-06 09:00:00,69.1,65.4,29.61,North,0,0.0,0.0,88,0.04,OVC,,1.02,WeatherDisplay:10.37,2013-06-06 14:00:00,
2013-06-06 09:05:00,69.3,65.6,29.61,North,0,0.0,0.0,88,0.03,BKN,,1.02,WeatherDisplay:10.37,2013-06-06 14:05:00,
2013-06-06 09:10:00,69.1,65.4,29.61,North,0,0.0,0.0,88,0.02,BKN,,1.02,WeatherDisplay:10.37,2013-06-06 14:10:00,
2013-06-06 09:15:00,69.1,65.4,29.61,North,0,0.0,0.0,88,0.01,BKN,,1.02,WeatherDisplay:10.37,2013-06-06 14:15:00,
2013-06-06 09:20:00,69.1,65.4,29.61,North,0,0.0,0.0,88,0.01,BKN,,1.02,WeatherDisplay:10.37,2013-06-06 14:20:00,
2013-06-06 09:25:00,69.3,65.6,29.61,North,0,0.0,0.0,88,0.00,BKN,,1.02,WeatherDisplay:10.37,2013-06-06 14:25:00,
2013-06-06 09:30:00,69.3,65.6,29.61,North,0,0.0,0.0,88,0.00,BKN,,1.02,WeatherDisplay:10.37,2013-06-06 14:30:00,
2013-06-06 09:35:00,69.4,65.7,29.61,North,0,0.0,0.0,88,0.00,BKN,,1.02,WeatherDisplay:10.37,2013-06-06 14:35:00,
2013-06-06 09:40:00,69.8,66.1,29.60,North,0,0.0,0.0,88,0.00,BKN,,1.02,WeatherDisplay:10.37,2013-06-06 14:40:00,
2013-06-06 09:45:00,69.8,66.1,29.60,North,0,0.0,0.0,88,0.00,BKN,,1.02,WeatherDisplay:10.37,2013-06-06 14:45:00,
2013-06-06 09:50:00,70.2,66.4,29.60,North,0,0.0,0.0,88,0.00,BKN,,1.02,WeatherDisplay:10.37,2013-06-06 14:50:00,
2013-06-06 09:55:00,70.3,66.6,29.59,North,0,0.0,0.0,88,0.00,BKN,,1.02,WeatherDisplay:10.37,2013-06-06 14:55:00,
2013-06-06 10:00:00,70.2,66.1,29.59,North,0,0.0,0.0,87,0.00,BKN,,1.02,WeatherDisplay:10.37,2013-06-06 15:00:00,
2013-06-06 10:05:00,70.3,66.3,29.60,North,0,0.0,0.0,87,0.00,CLR,,1.02,WeatherDisplay:10.37,2013-06-06 15:05:00,
2013-06-06 10:10:00,70.3,66.0,29.61,North,0,0.0,0.0,86,0.00,CLR,,1.02,WeatherDisplay:10.37,2013-06-06 15:10:00,
2013-06-06 10:15:00,70.5,66.1,29.61,North,0,0.0,0.0,86,0.00,CLR,,1.02,WeatherDisplay:10.37,2013-06-06 15:15:00,
2013-06-06 10:20:00,70.7,66.3,29.61,North,0,0.0,0.0,86,0.00,CLR,,1.02,WeatherDisplay:10.37,2013-06-06 15:20:00,
2013-06-06 10:25:00,70.9,66.5,29.61,North,0,0.0,0.0,86,0.00,CLR,,1.02,WeatherDisplay:10.37,2013-06-06 15:25:00,
2013-06-06 10:30:00,71.2,66.8,29.62,North,0,0.0,0.0,86,0.00,CLR,,1.02,WeatherDisplay:10.37,2013-06-06 15:30:00,
2013-06-06 10:35:00,71.6,67.2,29.62,North,0,0.0,0.0,86,0.00,CLR,,1.02,WeatherDisplay:10.37,2013-06-06 15:35:00,
2013-06-06 10:40:00,72.0,67.2,29.62,North,0,0.0,0.0,85,0.00,CLR,,1.02,WeatherDisplay:10.37,2013-06-06 15:40:00,
2013-06-06 10:45:00,72.3,67.2,29.62,North,0,0.0,0.0,84,0.00,CLR,,1.02,WeatherDisplay:10.37,2013-06-06 15:45:00,
2013-06-06 10:50:00,72.5,67.4,29.63,North,0,0.0,0.0,84,0.00,CLR,,1.02,WeatherDisplay:10.37,2013-06-06 15:50:00,
2013-06-06 10:55:00,72.7,67.6,29.63,North,0,0.0,0.0,84,0.00,CLR,,1.02,WeatherDisplay:10.37,2013-06-06 15:55:00,
2013-06-06 11:00:00,72.9,67.4,29.63,North,0,0.0,0.0,83,0.00,CLR,,1.02,WeatherDisplay:10.37,2013-06-06 16:00:00,
2013-06-06 11:05:00,72.7,67.2,29.64,North,0,0.0,0.0,83,0.00,CLR,,1.02,WeatherDisplay:10.37,2013-06-06 16:05:00,
2013-06-06 11:10:00,73.0,67.2,29.64,North,0,0.0,0.0,82,0.00,CLR,,1.02,WeatherDisplay:10.37,2013-06-06 16:10:00,
2013-06-06 11:15:00,73.0,66.9,29.63,North,0,0.0,0.0,81,0.00,CLR,,1.02,WeatherDisplay:10.37,2013-06-06 16:15:00,
2013-06-06 11:20:00,73.0,67.2,29.63,North,0,0.0,0.0,82,0.00,CLR,,1.02,WeatherDisplay:10.37,2013-06-06 16:20:00,
2013-06-06 11:25:00,73.4,67.9,29.63,North,0,0.0,0.0,83,0.00,CLR,,1.02,WeatherDisplay:10.37,2013-06-06 16:25:00,
2013-06-06 11:30:00,73.4,67.2,29.64,North,0,0.0,0.0,81,0.00,CLR,,1.02,WeatherDisplay:10.37,2013-06-06 16:30:00,
2013-06-06 11:35:00,73.4,67.6,29.64,North,0,0.0,0.0,82,0.00,CLR,,1.02,WeatherDisplay:10.37,2013-06-06 16:35:00,
2013-06-06 11:40:00,73.4,67.2,29.63,North,0,0.0,0.0,81,0.00,CLR,,1.02,WeatherDisplay:10.37,2013-06-06 16:40:00,
2013-06-06 11:46:00,73.2,67.0,29.64,North,0,0.0,0.0,81,0.00,CLR,,1.02,WeatherDisplay:10.37,2013-06-06 16:46:00,
2013-06-06 11:51:00,73.0,66.9,29.65,North,0,0.0,0.0,81,0.00,CLR,,1.02,WeatherDisplay:10.37,2013-06-06 16:51:00,
2013-06-06 11:56:00,73.0,66.9,29.65,North,0,0.0,0.0,81,0.00,CLR,,1.02,WeatherDisplay:10.37,2013-06-06 16:56:00,
2013-06-06 12:01:00,72.9,66.7,29.66,North,0,0.0,0.0,81,0.00,SCT,,1.02,WeatherDisplay:10.37,2013-06-06 17:01:00,
2013-06-06 12:06:00,72.9,66.7,29.66,North,0,0.0,0.0,81,0.00,SCT,,1.02,WeatherDisplay:10.37,2013-06-06 17:06:00,
2013-06-06 12:11:00,72.7,66.5,29.66,North,0,0.0,0.0,81,0.00,SCT,,1.02,WeatherDisplay:10.37,2013-06-06 17:11:00,
2013-06-06 12:16:00,72.7,66.2,29.66,North,0,0.0,0.0,80,0.00,SCT,,1.02,WeatherDisplay:10.37,2013-06-06 17:16:00,
2013-06-06 12:21:00,72.7,66.5,29.66,North,0,0.0,0.0,81,0.00,SCT,,1.02,WeatherDisplay:10.37,2013-06-06 17:21:00,
2013-06-06 12:26:00,72.7,66.5,29.67,North,0,0.0,0.0,81,0.00,SCT,,1.02,WeatherDisplay:10.37,2013-06-06 17:26:00,
2013-06-06 12:31:00,72.7,66.9,29.66,North,0,0.0,0.0,82,0.00,SCT,,1.02,WeatherDisplay:10.37,2013-06-06 17:31:00,
2013-06-06 12:36:00,72.7,66.9,29.66,North,0,0.0,0.0,82,0.00,SCT,,1.02,WeatherDisplay:10.37,2013-06-06 17:36:00,
2013-06-06 12:41:00,72.7,67.2,29.66,North,0,0.0,0.0,83,0.00,SCT,,1.02,WeatherDisplay:10.37,2013-06-06 17:41:00,
2013-06-06 12:46:00,72.7,67.2,29.67,North,0,0.0,0.0,83,0.00,SCT,,1.02,WeatherDisplay:10.37,2013-06-06 17:46:00,
2013-06-06 12:51:00,72.7,67.2,29.67,North,0,0.0,0.0,83,0.00,SCT,,1.02,WeatherDisplay:10.37,2013-06-06 17:51:00,
2013-06-06 12:56:00,72.9,67.4,29.68,North,0,0.0,0.0,83,0.00,SCT,,1.02,WeatherDisplay:10.37,2013-06-06 17:56:00,
2013-06-06 13:01:00,73.0,67.6,29.67,North,0,0.0,0.0,83,0.00,-RA,,1.02,WeatherDisplay:10.37,2013-06-06 18:01:00,
2013-06-06 13:06:00,73.0,67.6,29.67,North,0,0.0,0.0,83,0.00,-RA,,1.02,WeatherDisplay:10.37,2013-06-06 18:06:00,
2013-06-06 13:11:00,73.0,67.6,29.67,North,0,0.0,0.0,83,0.00,-RA,,1.02,WeatherDisplay:10.37,2013-06-06 18:11:00,
2013-06-06 13:16:00,73.2,67.7,29.67,North,0,0.0,0.0,83,0.00,-RA,,1.02,WeatherDisplay:10.37,2013-06-06 18:16:00,
2013-06-06 13:21:00,73.2,67.7,29.67,North,0,0.0,0.0,83,0.00,-RA,,1.02,WeatherDisplay:10.37,2013-06-06 18:21:00,
2013-06-06 13:26:00,73.0,67.2,29.67,North,0,0.0,0.0,82,0.00,-RA,,1.02,WeatherDisplay:10.37,2013-06-06 18:26:00,
2013-06-06 13:32:00,72.9,67.4,29.67,North,0,0.0,0.0,83,0.00,-RA,,1.02,WeatherDisplay:10.37,2013-06-06 18:32:00,
2013-06-06 13:37:00,72.9,67.4,29.67,North,0,0.0,0.0,83,0.00,-RA,,1.02,WeatherDisplay:10.37,2013-06-06 18:37:00,
2013-06-06 13:42:00,72.9,67.4,29.67,North,0,0.0,0.0,83,0.00,-RA,,1.02,WeatherDisplay:10.37,2013-06-06 18:42:00,
2013-06-06 13:47:00,72.9,67.4,29.67,North,0,0.0,0.0,83,0.00,-RA,,1.02,WeatherDisplay:10.37,2013-06-06 18:47:00,
2013-06-06 13:52:00,73.0,67.6,29.67,North,0,0.0,0.0,83,0.00,-RA,,1.02,WeatherDisplay:10.37,2013-06-06 18:52:00,
2013-06-06 13:57:00,73.2,67.7,29.67,North,0,0.0,0.0,83,0.00,-RA,,1.02,WeatherDisplay:10.37,2013-06-06 18:57:00,
2013-06-06 14:02:00,73.0,67.2,29.67,North,0,0.0,0.0,82,0.00,OVC,,1.02,WeatherDisplay:10.37,2013-06-06 19:02:00,
2013-06-06 14:07:00,73.0,67.2,29.67,North,0,0.0,0.0,82,0.00,OVC,,1.02,WeatherDisplay:10.37,2013-06-06 19:07:00,
2013-06-06 14:18:00,73.0,67.6,29.67,North,0,0.0,0.0,83,0.01,OVC,,1.04,WeatherDisplay:10.37,2013-06-06 19:18:00,
2013-06-06 14:23:00,73.2,68.1,29.67,North,0,0.0,0.0,84,0.02,RA,,1.04,WeatherDisplay:10.37,2013-06-06 19:23:00,
2013-06-06 14:28:00,73.4,67.9,29.67,North,0,0.0,0.0,83,0.02,RA,,1.04,WeatherDisplay:10.37,2013-06-06 19:28:00,
2013-06-06 14:33:00,73.2,68.1,29.66,North,0,0.0,0.0,84,0.02,OVC,,1.04,WeatherDisplay:10.37,2013-06-06 19:33:00,
2013-06-06 14:34:00,73.4,68.6,29.66,North,0,0.0,0.0,85,0.02,OVC,,1.04,WeatherDisplay:10.37,2013-06-06 19:34:00,
2013-06-06 14:39:00,73.0,68.3,29.66,North,0,0.0,0.0,85,0.02,OVC,,1.06,WeatherDisplay:10.37,2013-06-06 19:39:00,
2013-06-06 14:44:00,72.1,67.7,29.67,North,0,0.0,0.0,86,0.03,RA,,1.06,WeatherDisplay:10.37,2013-06-06 19:44:00,
2013-06-06 14:49:00,71.4,67.0,29.67,North,0,0.0,0.0,86,0.05,RA,,1.07,WeatherDisplay:10.37,2013-06-06 19:49:00,
2013-06-06 14:54:00,71.2,67.2,29.66,North,0,0.0,0.0,87,0.06,RA,,1.09,WeatherDisplay:10.37,2013-06-06 19:54:00,
2013-06-06 14:59:00,71.4,67.7,29.65,North,0,0.0,0.0,88,0.06,RA,,1.09,WeatherDisplay:10.37,2013-06-06 19:59:00,
2013-06-06 15:04:00,71.6,67.9,29.65,North,0,0.0,0.0,88,0.06,-DZ,,1.09,WeatherDisplay:10.37,2013-06-06 20:04:00,
2013-06-06 15:09:00,71.8,68.0,29.65,North,0,0.0,0.0,88,0.05,-DZ,,1.09,WeatherDisplay:10.37,2013-06-06 20:09:00,
2013-06-06 15:14:00,72.0,67.5,29.64,North,0,0.0,0.0,86,0.05,-DZ,,1.09,WeatherDisplay:10.37,2013-06-06 20:14:00,
2013-06-06 15:19:00,72.1,68.1,29.65,North,0,0.0,0.0,87,0.04,-DZ,,1.09,WeatherDisplay:10.37,2013-06-06 20:19:00,
2013-06-06 15:24:00,72.3,68.2,29.65,North,0,0.0,0.0,87,0.04,-DZ,,1.09,WeatherDisplay:10.37,2013-06-06 20:24:00,
2013-06-06 15:29:00,72.5,68.1,29.64,North,0,0.0,0.0,86,0.04,-DZ,,1.09,WeatherDisplay:10.37,2013-06-06 20:29:00,
2013-06-06 15:35:00,73.0,69.3,29.65,North,0,0.0,0.0,88,0.04,-DZ,,1.09,WeatherDisplay:10.37,2013-06-06 20:35:00,
2013-06-06 15:40:00,73.6,68.8,29.64,North,0,0.0,0.0,85,0.03,-DZ,,1.09,WeatherDisplay:10.37,2013-06-06 20:40:00,
2013-06-06 15:45:00,73.4,68.6,29.64,North,0,0.0,0.0,85,0.03,-DZ,,1.09,WeatherDisplay:10.37,2013-06-06 20:45:00,
2013-06-06 15:50:00,73.4,68.3,29.64,North,0,0.0,0.0,84,0.01,-DZ,,1.09,WeatherDisplay:10.37,2013-06-06 20:50:00,
2013-06-06 15:55:00,73.8,68.6,29.64,North,0,0.0,0.0,84,0.00,-DZ,,1.09,WeatherDisplay:10.37,2013-06-06 20:55:00,
2013-06-06 16:00:00,73.9,68.8,29.63,North,0,0.0,0.0,84,0.00,-DZ,,1.09,WeatherDisplay:10.37,2013-06-06 21:00:00,
2013-06-06 16:05:00,74.5,69.7,29.63,North,0,0.0,0.0,85,0.00,BKN,,1.09,WeatherDisplay:10.37,2013-06-06 21:05:00,
2013-06-06 16:10:00,74.8,69.0,29.63,North,0,0.0,0.0,82,0.00,BKN,,1.09,WeatherDisplay:10.37,2013-06-06 21:10:00,
2013-06-06 16:15:00,74.7,68.8,29.63,North,0,0.0,0.0,82,0.00,BKN,,1.09,WeatherDisplay:10.37,2013-06-06 21:15:00,
2013-06-06 16:20:00,74.5,68.6,29.63,North,0,0.0,0.0,82,0.00,BKN,,1.09,WeatherDisplay:10.37,2013-06-06 21:20:00,
2013-06-06 16:25:00,74.7,68.8,29.63,North,0,0.0,0.0,82,0.00,BKN,,1.09,WeatherDisplay:10.37,2013-06-06 21:25:00,
2013-06-06 16:30:00,74.7,69.2,29.63,North,0,0.0,0.0,83,0.00,BKN,,1.09,WeatherDisplay:10.37,2013-06-06 21:30:00,
2013-06-06 16:35:00,74.7,68.4,29.63,North,0,0.0,0.0,81,0.00,BKN,,1.09,WeatherDisplay:10.37,2013-06-06 21:35:00,
2013-06-06 16:40:00,75.0,68.8,29.62,North,0,0.0,0.0,81,0.00,BKN,,1.09,WeatherDisplay:10.37,2013-06-06 21:40:00,
2013-06-06 16:45:00,75.6,68.2,29.62,North,0,0.0,0.0,78,0.00,BKN,,1.09,WeatherDisplay:10.37,2013-06-06 21:45:00,
2013-06-06 16:50:00,75.6,68.2,29.63,North,0,0.0,0.0,78,0.00,BKN,,1.09,WeatherDisplay:10.37,2013-06-06 21:50:00,
2013-06-06 16:55:00,75.7,67.6,29.63,North,0,0.0,0.0,76,0.00,BKN,,1.09,WeatherDisplay:10.37,2013-06-06 21:55:00,
2013-06-06 17:00:00,75.4,67.3,29.63,North,0,0.0,0.0,76,0.00,BKN,,1.09,WeatherDisplay:10.37,2013-06-06 22:00:00,
2013-06-06 17:05:00,75.6,67.5,29.63,North,0,0.0,0.0,76,0.00,BKN,,1.09,WeatherDisplay:10.37,2013-06-06 22:05:00,
2013-06-06 17:10:00,75.9,67.4,29.63,North,0,0.0,0.0,75,0.00,BKN,,1.09,WeatherDisplay:10.37,2013-06-06 22:10:00,
2013-06-06 17:15:00,76.8,67.5,29.63,North,0,0.0,0.0,73,0.00,BKN,,1.09,WeatherDisplay:10.37,2013-06-06 22:15:00,
2013-06-06 17:20:00,77.4,67.6,29.64,North,0,0.0,0.0,72,0.00,BKN,,1.09,WeatherDisplay:10.37,2013-06-06 22:20:00,
2013-06-06 17:25:00,77.4,67.6,29.64,North,0,0.0,0.0,72,0.00,BKN,,1.09,WeatherDisplay:10.37,2013-06-06 22:25:00,
2013-06-06 17:30:00,76.8,67.5,29.64,North,0,0.0,0.0,73,0.00,BKN,,1.09,WeatherDisplay:10.37,2013-06-06 22:30:00,
2013-06-06 17:35:00,76.6,67.3,29.63,North,0,0.0,0.0,73,0.00,BKN,,1.09,WeatherDisplay:10.37,2013-06-06 22:35:00,
2013-06-06 17:40:00,77.0,67.7,29.63,North,0,0.0,0.0,73,0.00,BKN,,1.09,WeatherDisplay:10.37,2013-06-06 22:40:00,
2013-06-06 17:45:00,77.4,67.2,29.63,North,0,0.0,0.0,71,0.00,BKN,,1.09,WeatherDisplay:10.37,2013-06-06 22:45:00,
2013-06-06 17:50:00,77.5,67.4,29.63,North,0,0.0,0.0,71,0.00,BKN,,1.09,WeatherDisplay:10.37,2013-06-06 22:50:00,
2013-06-06 17:55:00,77.7,67.2,29.63,North,0,0.0,0.0,70,0.00,BKN,,1.09,WeatherDisplay:10.37,2013-06-06 22:55:00,
2013-06-06 18:00:00,78.1,66.2,29.63,North,0,0.0,0.0,67,0.00,BKN,,1.09,WeatherDisplay:10.37,2013-06-06 23:00:00,
2013-06-06 18:05:00,77.9,66.5,29.63,North,0,0.0,0.0,68,0.00,SCT,,1.09,WeatherDisplay:10.37,2013-06-06 23:05:00,
2013-06-06 18:10:00,78.1,66.7,29.63,North,0,0.0,0.0,68,0.00,SCT,,1.09,WeatherDisplay:10.37,2013-06-06 23:10:00,
2013-06-06 18:15:00,78.4,66.1,29.63,North,0,0.0,0.0,66,0.00,SCT,,1.09,WeatherDisplay:10.37,2013-06-06 23:15:00,
2013-06-06 18:20:00,78.4,66.1,29.63,North,0,0.0,0.0,66,0.00,SCT,,1.09,WeatherDisplay:10.37,2013-06-06 23:20:00,
2013-06-06 18:25:00,78.3,66.0,29.63,North,0,0.0,0.0,66,0.00,SCT,,1.09,WeatherDisplay:10.37,2013-06-06 23:25:00,
2013-06-06 18:30:00,78.4,66.6,29.63,North,0,0.0,0.0,67,0.00,SCT,,1.09,WeatherDisplay:10.37,2013-06-06 23:30:00,
2013-06-06 18:35:00,78.4,66.1,29.62,North,0,0.0,0.0,66,0.00,SCT,,1.09,WeatherDisplay:10.37,2013-06-06 23:35:00,
2013-06-06 18:40:00,78.6,66.3,29.62,North,0,0.0,0.0,66,0.00,SCT,,1.09,WeatherDisplay:10.37,2013-06-06 23:40:00,
2013-06-06 18:45:00,78.8,66.5,29.62,North,0,0.0,0.0,66,0.00,SCT,,1.09,WeatherDisplay:10.37,2013-06-06 23:45:00,
2013-06-06 18:50:00,79.2,66.8,29.62,North,0,0.0,0.0,66,0.00,SCT,,1.09,WeatherDisplay:10.37,2013-06-06 23:50:00,
2013-06-06 18:55:00,79.2,66.4,29.62,North,0,0.0,0.0,65,0.00,SCT,,1.09,WeatherDisplay:10.37,2013-06-06 23:55:00,
2013-06-06 19:00:00,79.2,66.4,29.62,North,0,0.0,0.0,65,0.00,SCT,,1.09,WeatherDisplay:10.37,2013-06-07 00:00:00,
2013-06-06 19:05:00,79.0,66.2,29.62,North,0,0.0,0.0,65,0.00,CLR,,1.09,WeatherDisplay:10.37,2013-06-07 00:05:00,
2013-06-06 19:10:00,79.2,66.4,29.63,North,0,0.0,0.0,65,0.00,CLR,,1.09,WeatherDisplay:10.37,2013-06-07 00:10:00,
2013-06-06 19:15:00,79.0,65.3,29.63,North,0,0.0,0.0,63,0.00,CLR,,1.09,WeatherDisplay:10.37,2013-06-07 00:15:00,
2013-06-06 19:20:00,78.6,65.4,29.63,North,0,0.0,0.0,64,0.00,CLR,,1.09,WeatherDisplay:10.37,2013-06-07 00:20:00,
2013-06-06 19:25:00,78.4,65.7,29.64,North,0,0.0,0.0,65,0.00,CLR,,1.09,WeatherDisplay:10.37,2013-06-07 00:25:00,
2013-06-06 19:30:00,78.4,65.7,29.64,North,0,0.0,0.0,65,0.00,CLR,,1.09,WeatherDisplay:10.37,2013-06-07 00:30:00,
2013-06-06 19:35:00,78.4,65.7,29.64,North,0,0.0,0.0,65,0.00,CLR,,1.09,WeatherDisplay:10.37,2013-06-07 00:35:00,
2013-06-06 19:40:00,78.3,66.0,29.64,North,0,0.0,0.0,66,0.00,CLR,,1.09,WeatherDisplay:10.37,2013-06-07 00:40:00,
2013-06-06 19:45:00,78.1,65.8,29.64,North,0,0.0,0.0,66,0.00,CLR,,1.09,WeatherDisplay:10.37,2013-06-07 00:45:00,
2013-06-06 19:50:00,78.1,65.8,29.64,North,0,0.0,0.0,66,0.00,CLR,,1.09,WeatherDisplay:10.37,2013-06-07 00:50:00,
2013-06-06 19:55:00,77.9,66.1,29.64,North,0,0.0,0.0,67,0.00,CLR,,1.09,WeatherDisplay:10.37,2013-06-07 00:55:00,
2013-06-06 20:00:00,77.7,66.3,29.64,North,0,0.0,0.0,68,0.00,SCT,,1.09,WeatherDisplay:10.37,2013-06-07 01:00:00,
2013-06-06 20:05:00,77.5,66.1,29.64,North,0,0.0,0.0,68,0.00,SCT,,1.09,WeatherDisplay:10.37,2013-06-07 01:05:00,
2013-06-06 20:10:00,77.4,66.4,29.65,North,0,0.0,0.0,69,0.00,SCT,,1.09,WeatherDisplay:10.37,2013-06-07 01:10:00,
2013-06-06 20:15:00,77.0,66.0,29.65,North,0,0.0,0.0,69,0.00,SCT,,1.09,WeatherDisplay:10.37,2013-06-07 01:15:00,
2013-06-06 20:21:00,76.6,66.1,29.65,North,0,0.0,0.0,70,0.00,SCT,,1.09,WeatherDisplay:10.37,2013-06-07 01:21:00,
2013-06-06 20:26:00,76.1,66.0,29.65,North,0,0.0,0.0,71,0.00,SCT,,1.09,WeatherDisplay:10.37,2013-06-07 01:26:00,
2013-06-06 20:31:00,75.9,66.2,29.66,North,0,0.0,0.0,72,0.00,SCT,,1.09,WeatherDisplay:10.37,2013-06-07 01:31:00,
2013-06-06 20:36:00,75.6,66.3,29.66,North,0,0.0,0.0,73,0.00,SCT,,1.09,WeatherDisplay:10.37,2013-06-07 01:36:00,
2013-06-06 20:41:00,75.2,66.3,29.66,North,0,0.0,0.0,74,0.00,SCT,,1.09,WeatherDisplay:10.37,2013-06-07 01:41:00,
2013-06-06 20:46:00,74.8,66.0,29.66,North,0,0.0,0.0,74,0.00,SCT,,1.09,WeatherDisplay:10.37,2013-06-07 01:46:00,
2013-06-06 20:51:00,74.5,66.0,29.66,North,0,0.0,0.0,75,0.00,SCT,,1.09,WeatherDisplay:10.37,2013-06-07 01:51:00,
2013-06-06 20:56:00,74.3,65.9,29.66,North,0,0.0,0.0,75,0.00,SCT,,1.09,WeatherDisplay:10.37,2013-06-07 01:56:00,
2013-06-06 21:01:00,74.1,65.7,29.66,North,0,0.0,0.0,75,0.00,CLR,,1.09,WeatherDisplay:10.37,2013-06-07 02:01:00,
2013-06-06 21:06:00,73.8,65.7,29.66,North,0,0.0,0.0,76,0.00,CLR,,1.09,WeatherDisplay:10.37,2013-06-07 02:06:00,
2013-06-06 21:11:00,73.8,65.7,29.67,North,0,0.0,0.0,76,0.00,CLR,,1.09,WeatherDisplay:10.37,2013-06-07 02:11:00,
2013-06-06 21:16:00,73.6,65.9,29.67,North,0,0.0,0.0,77,0.00,CLR,,1.09,WeatherDisplay:10.37,2013-06-07 02:16:00,
2013-06-06 21:21:00,73.4,65.7,29.67,North,0,0.0,0.0,77,0.00,CLR,,1.09,WeatherDisplay:10.37,2013-06-07 02:21:00,
2013-06-06 21:26:00,73.2,65.6,29.67,North,0,0.0,0.0,77,0.00,CLR,,1.09,WeatherDisplay:10.37,2013-06-07 02:26:00,
2013-06-06 21:31:00,73.0,65.8,29.67,North,0,0.0,0.0,78,0.00,CLR,,1.09,WeatherDisplay:10.37,2013-06-07 02:31:00,
2013-06-06 21:36:00,73.0,65.8,29.67,North,0,0.0,0.0,78,0.00,CLR,,1.09,WeatherDisplay:10.37,2013-06-07 02:36:00,
2013-06-06 21:41:00,72.9,65.6,29.67,North,0,0.0,0.0,78,0.00,CLR,,1.09,WeatherDisplay:10.37,2013-06-07 02:41:00,
2013-06-06 21:46:00,72.7,65.8,29.67,North,0,0.0,0.0,79,0.00,CLR,,1.09,WeatherDisplay:10.37,2013-06-07 02:46:00,
2013-06-06 21:51:00,72.3,65.4,29.67,North,0,0.0,0.0,79,0.00,CLR,,1.09,WeatherDisplay:10.37,2013-06-07 02:51:00,
2013-06-06 21:56:00,72.1,65.3,29.67,North,0,0.0,0.0,79,0.00,CLR,,1.09,WeatherDisplay:10.37,2013-06-07 02:56:00,
2013-06-06 22:01:00,71.8,65.3,29.68,North,0,0.0,0.0,80,0.00,CLR,,1.09,WeatherDisplay:10.37,2013-06-07 03:01:00,
2013-06-06 22:06:00,71.6,65.1,29.68,North,0,0.0,0.0,80,0.00,CLR,,1.09,WeatherDisplay:10.37,2013-06-07 03:06:00,
2013-06-06 22:11:00,71.6,65.1,29.68,North,0,0.0,0.0,80,0.00,CLR,,1.09,WeatherDisplay:10.37,2013-06-07 03:11:00,
2013-06-06 22:16:00,71.6,65.1,29.68,North,0,0.0,0.0,80,0.00,CLR,,1.09,WeatherDisplay:10.37,2013-06-07 03:16:00,
2013-06-06 22:21:00,71.4,64.9,29.69,North,0,0.0,0.0,80,0.00,CLR,,1.09,WeatherDisplay:10.37,2013-06-07 03:21:00,
2013-06-06 22:26:00,71.4,64.9,29.69,North,0,0.0,0.0,80,0.00,CLR,,1.09,WeatherDisplay:10.37,2013-06-07 03:26:00,
2013-06-06 22:31:00,71.2,64.8,29.69,North,0,0.0,0.0,80,0.00,CLR,,1.09,WeatherDisplay:10.37,2013-06-07 03:31:00,
2013-06-06 22:36:00,71.2,65.1,29.69,North,0,0.0,0.0,81,0.00,CLR,,1.09,WeatherDisplay:10.37,2013-06-07 03:36:00,
2013-06-06 22:41:00,71.1,64.9,29.69,North,0,0.0,0.0,81,0.00,CLR,,1.09,WeatherDisplay:10.37,2013-06-07 03:41:00,
2013-06-06 22:46:00,70.9,64.8,29.69,North,0,0.0,0.0,81,0.00,CLR,,1.09,WeatherDisplay:10.37,2013-06-07 03:46:00,
2013-06-06 22:51:00,70.7,64.9,29.69,North,0,0.0,0.0,82,0.00,CLR,,1.09,WeatherDisplay:10.37,2013-06-07 03:51:00,
2013-06-06 22:57:00,70.5,64.8,29.69,North,0,0.0,0.0,82,0.00,CLR,,1.09,WeatherDisplay:10.37,2013-06-07 03:57:00,
2013-06-06 23:01:00,70.3,64.6,29.69,North,0,0.0,0.0,82,0.00,CLR,,1.09,WeatherDisplay:10.37,2013-06-07 04:01:00,
2013-06-06 23:02:00,70.3,64.6,29.69,North,0,0.0,0.0,82,0.00,CLR,,1.09,WeatherDisplay:10.37,2013-06-07 04:02:00,
2013-06-06 23:07:00,70.2,64.4,29.69,North,0,0.0,0.0,82,0.00,CLR,,1.09,WeatherDisplay:10.37,2013-06-07 04:07:00,
2013-06-06 23:12:00,70.2,64.4,29.69,North,0,0.0,0.0,82,0.00,CLR,,1.09,WeatherDisplay:10.37,2013-06-07 04:12:00,
2013-06-06 23:17:00,70.2,64.8,29.69,North,0,0.0,0.0,83,0.00,CLR,,1.09,WeatherDisplay:10.37,2013-06-07 04:17:00,
2013-06-06 23:22:00,70.0,64.6,29.70,North,0,0.0,0.0,83,0.00,CLR,,1.09,WeatherDisplay:10.37,2013-06-07 04:22:00,
2013-06-06 23:27:00,69.8,64.4,29.70,North,0,0.0,0.0,83,0.00,CLR,,1.09,WeatherDisplay:10.37,2013-06-07 04:27:00,
2013-06-06 23:32:00,69.8,64.4,29.70,North,0,0.0,0.0,83,0.00,CLR,,1.09,WeatherDisplay:10.37,2013-06-07 04:32:00,
2013-06-06 23:37:00,69.8,64.4,29.70,North,0,0.0,0.0,83,0.00,CLR,,1.09,WeatherDisplay:10.37,2013-06-07 04:37:00,
2013-06-06 23:42:00,69.6,64.2,29.70,North,0,0.0,0.0,83,0.00,CLR,,1.09,WeatherDisplay:10.37,2013-06-07 04:42:00,
2013-06-06 23:47:00,69.6,64.2,29.70,North,0,0.0,0.0,83,0.00,CLR,,1.09,WeatherDisplay:10.37,2013-06-07 04:47:00,
2013-06-06 23:52:00,69.4,64.0,29.70,North,0,0.0,0.0,83,0.00,CLR,,1.09,WeatherDisplay:10.37,2013-06-07 04:52:00,
2013-06-06 23:57:00,69.4,64.0,29.69,North,0,0.0,0.0,83,0.00,CLR,,1.09,WeatherDisplay:10.37,2013-06-07 04:57:00,